Time,TemperatureF,DewpointF,PressureIn,WindDirection,WindDirectionDegrees,WindSpeedMPH,WindSpeedGustMPH,Humidity,HourlyPrecipIn,Conditions,Clouds,dailyrainin,SoftwareType,DateUTC
2013-03-12 00:02:00,27.0,22.0,30.27,ESE,123,0.0,0.0,80,-99.99,,,-99.99,,2013-03-12 06:02:00,
2013-03-12 00:21:00,27.0,22.0,30.27,ESE,123,0.0,0.0,81,-99.99,,,-99.99,,2013-03-12 06:21:00,
2013-03-12 00:32:00,26.0,22.0,30.26,SE,124,0.0,0.0,84,-99.99,,,-99.99,,2013-03-12 06:32:00,
2013-03-12 01:02:00,25.0,21.0,30.27,SE,124,0.0,0.0,85,-99.99,,,-99.99,,2013-03-12 07:02:00,
2013-03-12 01:21:00,25.0,21.0,30.27,SE,124,0.0,0.0,85,-99.99,,,-99.99,,2013-03-12 07:21:00,
2013-03-12 01:32:00,25.0,22.0,30.27,SE,124,0.0,0.0,87,-99.99,,,-99.99,,2013-03-12 07:32:00,
2013-03-12 02:02:00,26.0,23.0,30.27,SE,124,0.0,0.0,87,-99.99,,,-99.99,,2013-03-12 08:02:00,
2013-03-12 02:32:00,27.0,23.0,30.27,WNW,283,0.0,0.0,86,-99.99,,,-99.99,,2013-03-12 08:32:00,
2013-03-12 02:42:00,27.0,23.0,30.27,WNW,283,0.0,0.0,86,-99.99,,,-99.99,,2013-03-12 08:42:00,
2013-03-12 02:52:00,28.0,24.0,30.28,NE,53,0.0,0.0,85,-99.99,,,-99.99,,2013-03-12 08:52:00,
2013-03-12 03:02:00,28.0,24.0,30.27,NE,40,0.0,0.0,84,-99.99,,,-99.99,,2013-03-12 09:02:00,
2013-03-12 03:11:00,28.0,24.0,30.27,NE,40,0.0,0.0,84,-99.99,,,-99.99,,2013-03-12 09:11:00,
2013-03-12 03:22:00,28.0,24.0,30.27,NE,40,0.0,0.0,84,-99.99,,,-99.99,,2013-03-12 09:22:00,
2013-03-12 03:32:00,28.0,24.0,30.27,NE,40,0.0,0.0,84,-99.99,,,-99.99,,2013-03-12 09:32:00,
2013-03-12 03:42:00,28.0,24.0,30.27,NE,40,0.0,0.0,84,-99.99,,,-99.99,,2013-03-12 09:42:00,
2013-03-12 03:52:00,28.0,24.0,30.27,SSW,211,1.0,0.0,84,-99.99,,,-99.99,,2013-03-12 09:52:00,
2013-03-12 04:02:00,29.0,25.0,30.27,NNE,30,0.0,0.0,83,-99.99,,,-99.99,,2013-03-12 10:02:00,
2013-03-12 04:12:00,29.0,25.0,30.27,NNE,30,0.0,0.0,83,-99.99,,,-99.99,,2013-03-12 10:12:00,
2013-03-12 04:22:00,29.0,25.0,30.26,NNE,30,0.0,0.0,83,-99.99,,,-99.99,,2013-03-12 10:22:00,
2013-03-12 04:32:00,28.0,24.0,30.25,NNE,30,0.0,0.0,84,-99.99,,,-99.99,,2013-03-12 10:32:00,
2013-03-12 04:42:00,28.0,24.0,30.25,NNE,30,0.0,0.0,84,-99.99,,,-99.99,,2013-03-12 10:42:00,
2013-03-12 04:52:00,28.0,24.0,30.25,SSE,156,1.0,0.0,84,-99.99,,,-99.99,,2013-03-12 10:52:00,
2013-03-12 05:02:00,28.0,24.0,30.25,SSW,194,0.0,0.0,85,-99.99,,,-99.99,,2013-03-12 11:02:00,
2013-03-12 05:12:00,28.0,24.0,30.25,SSW,194,0.0,0.0,85,-99.99,,,-99.99,,2013-03-12 11:12:00,
2013-03-12 05:22:00,27.0,23.0,30.26,SSW,194,0.0,0.0,84,-99.99,,,-99.99,,2013-03-12 11:22:00,
2013-03-12 05:32:00,27.0,23.0,30.26,SSW,194,1.0,0.0,84,-99.99,,,-99.99,,2013-03-12 11:32:00,
2013-03-12 05:42:00,27.0,23.0,30.26,SSW,194,1.0,0.0,84,-99.99,,,-99.99,,2013-03-12 11:42:00,
2013-03-12 05:52:00,27.0,23.0,30.27,East,101,0.0,0.0,86,-99.99,,,-99.99,,2013-03-12 11:52:00,
2013-03-12 06:02:00,28.0,24.0,30.27,East,79,0.0,0.0,83,-99.99,,,-99.99,,2013-03-12 12:02:00,
2013-03-12 06:12:00,28.0,24.0,30.27,East,79,0.0,0.0,83,-99.99,,,-99.99,,2013-03-12 12:12:00,
2013-03-12 06:22:00,29.0,24.0,30.28,East,88,0.0,0.0,80,-99.99,,,-99.99,,2013-03-12 12:22:00,
2013-03-12 06:32:00,28.0,24.0,30.29,East,87,0.0,0.0,84,-99.99,,,-99.99,,2013-03-12 12:32:00,
2013-03-12 06:42:00,28.0,24.0,30.29,East,87,0.0,0.0,84,-99.99,,,-99.99,,2013-03-12 12:42:00,
2013-03-12 06:52:00,28.0,24.0,30.29,East,87,0.0,0.0,84,-99.99,,,-99.99,,2013-03-12 12:52:00,
2013-03-12 07:02:00,28.0,24.0,30.29,East,87,0.0,0.0,85,-99.99,,,-99.99,,2013-03-12 13:02:00,
2013-03-12 07:11:00,28.0,24.0,30.29,East,87,0.0,0.0,85,-99.99,,,-99.99,,2013-03-12 13:11:00,
2013-03-12 07:22:00,28.0,24.0,30.29,SSE,166,0.0,0.0,86,-99.99,,,-99.99,,2013-03-12 13:22:00,
2013-03-12 07:32:00,28.0,24.0,30.29,ESE,120,0.0,0.0,85,-99.99,,,-99.99,,2013-03-12 13:32:00,
2013-03-12 07:42:00,28.0,24.0,30.29,ESE,120,0.0,0.0,85,-99.99,,,-99.99,,2013-03-12 13:42:00,
2013-03-12 07:52:00,28.0,24.0,30.29,ESE,120,0.0,0.0,85,-99.99,,,-99.99,,2013-03-12 13:52:00,
2013-03-12 08:02:00,27.0,24.0,30.29,ESE,120,0.0,0.0,87,-99.99,,,-99.99,,2013-03-12 14:02:00,
2013-03-12 08:11:00,27.0,24.0,30.29,ESE,120,0.0,0.0,87,-99.99,,,-99.99,,2013-03-12 14:11:00,
2013-03-12 08:22:00,27.0,24.0,30.29,ESE,120,0.0,0.0,87,-99.99,,,-99.99,,2013-03-12 14:22:00,
2013-03-12 08:32:00,27.0,24.0,30.30,ESE,120,1.0,0.0,89,-99.99,,,-99.99,,2013-03-12 14:32:00,
2013-03-12 08:52:00,28.0,25.0,30.30,ESE,120,0.0,0.0,90,-99.99,,,-99.99,,2013-03-12 14:52:00,
2013-03-12 09:02:00,30.0,25.0,30.31,ENE,63,0.0,0.0,80,-99.99,,,-99.99,,2013-03-12 15:02:00,
2013-03-12 09:12:00,30.0,25.0,30.31,ENE,63,0.0,0.0,80,-99.99,,,-99.99,,2013-03-12 15:12:00,
2013-03-12 09:22:00,31.0,25.0,30.31,East,82,1.0,0.0,77,-99.99,,,-99.99,,2013-03-12 15:22:00,
2013-03-12 09:32:00,33.0,26.0,30.31,NNW,342,1.0,0.0,75,-99.99,,,-99.99,,2013-03-12 15:32:00,
2013-03-12 09:41:00,33.0,26.0,30.31,NNW,342,1.0,0.0,75,-99.99,,,-99.99,,2013-03-12 15:41:00,
2013-03-12 09:52:00,34.0,27.0,30.30,SSE,159,1.0,0.0,74,-99.99,,,-99.99,,2013-03-12 15:52:00,
2013-03-12 10:02:00,36.0,26.0,30.30,West,271,0.0,0.0,68,-99.99,,,-99.99,,2013-03-12 16:02:00,
2013-03-12 10:12:00,36.0,26.0,30.30,West,271,0.0,0.0,68,-99.99,,,-99.99,,2013-03-12 16:12:00,
2013-03-12 10:22:00,36.0,26.0,30.30,West,271,0.0,0.0,68,-99.99,,,-99.99,,2013-03-12 16:22:00,
2013-03-12 10:32:00,38.0,27.0,30.30,WSW,258,0.0,0.0,63,-99.99,,,-99.99,,2013-03-12 16:32:00,
2013-03-12 10:42:00,38.0,27.0,30.30,WSW,258,0.0,0.0,63,-99.99,,,-99.99,,2013-03-12 16:42:00,
2013-03-12 10:52:00,42.0,26.0,30.29,SSE,154,0.0,0.0,53,-99.99,,,-99.99,,2013-03-12 16:52:00,
2013-03-12 11:02:00,40.0,26.0,30.30,NNE,29,2.0,0.0,57,-99.99,,,-99.99,,2013-03-12 17:02:00,
2013-03-12 11:12:00,40.0,26.0,30.30,NNE,29,2.0,0.0,57,-99.99,,,-99.99,,2013-03-12 17:12:00,
2013-03-12 11:22:00,40.0,26.0,30.30,NNE,29,2.0,0.0,57,-99.99,,,-99.99,,2013-03-12 17:22:00,
2013-03-12 11:33:00,43.0,27.0,30.30,NNW,339,2.0,0.0,53,-99.99,,,-99.99,,2013-03-12 17:33:00,
2013-03-12 11:42:00,43.0,27.0,30.30,NNW,339,2.0,0.0,53,-99.99,,,-99.99,,2013-03-12 17:42:00,
2013-03-12 11:53:00,42.0,23.0,30.28,SSE,149,0.0,0.0,47,-99.99,,,-99.99,,2013-03-12 17:53:00,
2013-03-12 12:02:00,44.0,27.0,30.25,NE,41,6.0,0.0,50,-99.99,,,-99.99,,2013-03-12 18:02:00,
2013-03-12 12:12:00,44.0,27.0,30.25,NE,41,6.0,0.0,50,-99.99,,,-99.99,,2013-03-12 18:12:00,
2013-03-12 12:22:00,44.0,27.0,30.25,NE,41,6.0,0.0,50,-99.99,,,-99.99,,2013-03-12 18:22:00,
2013-03-12 12:32:00,45.0,25.0,30.24,East,79,1.0,0.0,46,-99.99,,,-99.99,,2013-03-12 18:32:00,
2013-03-12 12:42:00,45.0,25.0,30.24,East,79,1.0,0.0,46,-99.99,,,-99.99,,2013-03-12 18:42:00,
2013-03-12 12:53:00,46.0,27.0,30.23,East,95,4.0,0.0,48,-99.99,,,-99.99,,2013-03-12 18:53:00,
2013-03-12 13:03:00,47.0,27.0,30.25,ENE,62,3.0,0.0,45,-99.99,,,-99.99,,2013-03-12 19:03:00,
2013-03-12 13:12:00,47.0,27.0,30.25,ENE,62,3.0,0.0,45,-99.99,,,-99.99,,2013-03-12 19:12:00,
2013-03-12 13:22:00,48.0,27.0,30.24,South,191,0.0,0.0,44,-99.99,,,-99.99,,2013-03-12 19:22:00,
2013-03-12 13:32:00,48.0,27.0,30.26,NNW,335,5.0,0.0,43,-99.99,,,-99.99,,2013-03-12 19:32:00,
2013-03-12 13:43:00,48.0,27.0,30.26,NNW,335,5.0,0.0,43,-99.99,,,-99.99,,2013-03-12 19:43:00,
2013-03-12 13:52:00,48.0,27.0,30.26,NNW,335,5.0,0.0,43,-99.99,,,-99.99,,2013-03-12 19:52:00,
2013-03-12 14:02:00,49.0,29.0,30.25,NNE,33,5.0,0.0,45,-99.99,,,-99.99,,2013-03-12 20:02:00,
2013-03-12 14:11:00,49.0,29.0,30.25,NNE,33,5.0,0.0,45,-99.99,,,-99.99,,2013-03-12 20:11:00,
2013-03-12 14:22:00,49.0,27.0,30.25,NE,51,10.0,0.0,43,-99.99,,,-99.99,,2013-03-12 20:22:00,
2013-03-12 14:32:00,49.0,28.0,30.24,North,351,4.0,0.0,44,-99.99,,,-99.99,,2013-03-12 20:32:00,
2013-03-12 14:42:00,49.0,28.0,30.24,North,351,4.0,0.0,44,-99.99,,,-99.99,,2013-03-12 20:42:00,
2013-03-12 14:52:00,49.0,28.0,30.24,North,351,4.0,0.0,44,-99.99,,,-99.99,,2013-03-12 20:52:00,
2013-03-12 15:02:00,49.0,27.0,30.24,ENE,71,2.0,0.0,43,-99.99,,,-99.99,,2013-03-12 21:02:00,
2013-03-12 15:12:00,49.0,27.0,30.24,ENE,71,2.0,0.0,43,-99.99,,,-99.99,,2013-03-12 21:12:00,
2013-03-12 15:22:00,49.0,30.0,30.23,NE,35,1.0,0.0,47,-99.99,,,-99.99,,2013-03-12 21:22:00,
2013-03-12 15:32:00,50.0,29.0,30.22,NW,326,2.0,0.0,44,-99.99,,,-99.99,,2013-03-12 21:32:00,
2013-03-12 15:42:00,50.0,29.0,30.22,NW,326,2.0,0.0,44,-99.99,,,-99.99,,2013-03-12 21:42:00,
2013-03-12 15:52:00,50.0,28.0,30.22,NW,322,3.0,0.0,42,-99.99,,,-99.99,,2013-03-12 21:52:00,
2013-03-12 16:02:00,50.0,27.0,30.23,NNE,12,6.0,0.0,41,-99.99,,,-99.99,,2013-03-12 22:02:00,
2013-03-12 16:12:00,50.0,27.0,30.23,NNE,12,6.0,0.0,41,-99.99,,,-99.99,,2013-03-12 22:12:00,
2013-03-12 16:22:00,50.0,27.0,30.23,NNE,12,6.0,0.0,41,-99.99,,,-99.99,,2013-03-12 22:22:00,
2013-03-12 16:32:00,50.0,27.0,30.22,NNW,342,3.0,0.0,41,-99.99,,,-99.99,,2013-03-12 22:32:00,
2013-03-12 16:42:00,50.0,27.0,30.22,NNW,342,3.0,0.0,41,-99.99,,,-99.99,,2013-03-12 22:42:00,
2013-03-12 16:53:00,50.0,27.0,30.22,NNW,342,3.0,0.0,41,-99.99,,,-99.99,,2013-03-12 22:53:00,
2013-03-12 17:02:00,51.0,28.0,30.22,NE,44,2.0,0.0,40,-99.99,,,-99.99,,2013-03-12 23:02:00,
2013-03-12 17:11:00,51.0,28.0,30.22,NE,44,2.0,0.0,40,-99.99,,,-99.99,,2013-03-12 23:11:00,
2013-03-12 17:22:00,50.0,27.0,30.22,NNW,345,4.0,0.0,40,-99.99,,,-99.99,,2013-03-12 23:22:00,
2013-03-12 17:34:00,50.0,28.0,30.21,NE,53,5.0,0.0,42,-99.99,,,-99.99,,2013-03-12 23:34:00,
2013-03-12 17:43:00,50.0,28.0,30.21,NE,53,5.0,0.0,42,-99.99,,,-99.99,,2013-03-12 23:43:00,
2013-03-12 17:52:00,50.0,28.0,30.21,NE,47,2.0,0.0,42,-99.99,,,-99.99,,2013-03-12 23:52:00,
2013-03-12 18:02:00,49.0,27.0,30.21,North,358,2.0,0.0,42,-99.99,,,-99.99,,2013-03-13 00:02:00,
2013-03-12 18:12:00,49.0,27.0,30.21,North,358,2.0,0.0,42,-99.99,,,-99.99,,2013-03-13 00:12:00,
2013-03-12 18:22:00,50.0,28.0,30.21,NE,42,4.0,0.0,42,-99.99,,,-99.99,,2013-03-13 00:22:00,
2013-03-12 18:32:00,49.0,27.0,30.21,NNE,32,1.0,0.0,42,-99.99,,,-99.99,,2013-03-13 00:32:00,
2013-03-12 18:41:00,49.0,27.0,30.21,NNE,32,1.0,0.0,42,-99.99,,,-99.99,,2013-03-13 00:41:00,
2013-03-12 18:52:00,49.0,27.0,30.21,NNE,32,1.0,0.0,42,-99.99,,,-99.99,,2013-03-13 00:52:00,
2013-03-12 19:02:00,48.0,27.0,30.22,NNW,344,0.0,0.0,43,-99.99,,,-99.99,,2013-03-13 01:02:00,
2013-03-12 19:12:00,48.0,27.0,30.22,NNW,344,0.0,0.0,43,-99.99,,,-99.99,,2013-03-13 01:12:00,
2013-03-12 19:22:00,47.0,27.0,30.22,NNW,344,0.0,0.0,46,-99.99,,,-99.99,,2013-03-13 01:22:00,
2013-03-12 19:32:00,44.0,27.0,30.22,ESE,102,1.0,0.0,50,-99.99,,,-99.99,,2013-03-13 01:32:00,
2013-03-12 20:02:00,40.0,27.0,30.22,ESE,108,0.0,0.0,60,-99.99,,,-99.99,,2013-03-13 02:02:00,
2013-03-12 20:22:00,37.0,27.0,30.24,ESE,103,0.0,0.0,68,-99.99,,,-99.99,,2013-03-13 02:22:00,
2013-03-12 20:32:00,34.0,26.0,30.24,SE,139,1.0,0.0,72,-99.99,,,-99.99,,2013-03-13 02:32:00,
2013-03-12 20:52:00,34.0,27.0,30.24,ESE,113,0.0,0.0,74,-99.99,,,-99.99,,2013-03-13 02:52:00,
2013-03-12 21:01:00,32.0,26.0,30.25,NNE,24,1.0,0.0,77,-99.99,,,-99.99,,2013-03-13 03:01:00,
2013-03-12 21:32:00,33.0,26.0,30.26,SW,219,1.0,0.0,74,-99.99,,,-99.99,,2013-03-13 03:32:00,
2013-03-12 21:52:00,32.0,25.0,30.27,SW,220,1.0,0.0,75,-99.99,,,-99.99,,2013-03-13 03:52:00,
2013-03-12 22:02:00,33.0,25.0,30.28,East,93,3.0,0.0,72,-99.99,,,-99.99,,2013-03-13 04:02:00,
2013-03-12 22:22:00,33.0,25.0,30.29,SW,231,0.0,0.0,72,-99.99,,,-99.99,,2013-03-13 04:22:00,
2013-03-12 22:31:00,33.0,25.0,30.29,SW,231,0.0,0.0,72,-99.99,,,-99.99,,2013-03-13 04:31:00,
2013-03-12 22:52:00,30.0,24.0,30.31,NNW,329,0.0,0.0,79,-99.99,,,-99.99,,2013-03-13 04:52:00,
2013-03-12 23:02:00,28.0,23.0,30.32,NNW,329,0.0,0.0,82,-99.99,,,-99.99,,2013-03-13 05:02:00,
2013-03-12 23:22:00,28.0,24.0,30.32,ENE,63,0.0,0.0,85,-99.99,,,-99.99,,2013-03-13 05:22:00,
2013-03-12 23:32:00,28.0,24.0,30.33,ESE,107,2.0,0.0,86,-99.99,,,-99.99,,2013-03-13 05:32:00,
2013-03-12 23:51:00,28.0,23.0,30.33,SSE,159,0.0,0.0,82,-99.99,,,-99.99,,2013-03-13 05:51:00,